Current weather by "City, St" or "zip code"  
 
Advertise Here

Current Conditions: New Bedford, New Bedford Regional Airport, MA

Mostly Cloudy and Breezy


77.0 F

Last Updated on Aug 4 2020, 5:53 pm EDT
Humidity: 88%
Wind Speed: S 25.3 G 44.9 mph
Barometer 29.81 in
Dewpoint: 73.0 F
Visibility: 10.00 mi
Precip: 00.02 in
Heat Index: NA
Wind Chill: NA
Current conditions at:

New Bedford, New Bedford Regional Airport, MA (KEWB)

Lat: 41.67528 Lon: 70.95694

Local Radar Image active severe weather and emergency alerts image image weather storm and storm spotter reports image weather observation monitoring service image
Local
Radar
Active
Alerts
Storm Reports Obs
Monitoring

Sign-up For Email & Text Message Weather Alert Notification Services


Advertise Here

Observation History for New Bedford, New Bedford Regional Airport, MA


Time Wind
(mph)
Vis
(mi)
Weather Precip (in) Temperature (F) Relative
Humidity
Wind
Chill
(F)
Heat
Index
(F)
Pressure
Air Dwpt altimeter
(in)
sea level
(mb)
Rmks
5:53 pm EDT S 25.3 G 44.9 10.00 Mostly Cloudy and Breezy 00.02 77.0 73.0 88% NA NA 29.81 1009.2
4:53 pm EDT SE 27.6 G 46.0 10.00 Overcast and Windy Trace 81.0 75.0 82% NA 87 29.79 1008.5
3:53 pm EDT SE 27.6 G 39.1 10.00 Overcast and Windy -- 82.0 73.9 77% NA 88 29.85 1010.6
2:53 pm EDT SE 24.2 G 33.4 10.00 A Few Clouds and Breezy -- 82.0 73.9 77% NA 88 29.90 1012.3
1:53 pm EDT SE 18.4 G 25.3 10.00 A Few Clouds -- 85.0 73.9 70% NA 93 29.96 1014.3
12:53 pm EDT SE 21.9 10.00 Overcast and Breezy -- 85.0 75.0 72% NA 94 30.00 1015.6
11:53 am EDT SE 19.6 G 26.5 10.00 Overcast -- 83.0 75.0 77% NA 90 30.01 1016.2
10:53 am EDT S 15.0 G 23.0 10.00 Mostly Cloudy -- 84.0 75.9 77% NA 93 30.03 1016.6
9:53 am EDT SE 10.4 10.00 Mostly Cloudy -- 83.0 75.9 79% NA 91 30.03 1016.9
8:53 am EDT SE 11.5 7.00 Mostly Cloudy -- 80.0 75.9 87% NA 85 30.04 1017.0
7:53 am EDT SE 3.5 10.00 Fair -- 79.0 73.0 82% NA NA 30.04 1017.3
6:53 am EDT N 0.0 10.00 Fair -- 77.0 73.0 88% NA NA 30.06 1017.7
5:53 am EDT N 0.0 1.75 Fog/Mist -- 74.0 73.0 97% NA NA 30.06 1017.8
4:53 am EDT S 3.5 1.50 Fog/Mist -- 75.0 73.0 94% NA NA 30.06 1017.8
3:53 am EDT S 4.6 3.00 Fog/Mist -- 75.0 73.0 94% NA NA 30.06 1017.8
2:53 am EDT N 0.0 10.00 Fair -- 74.0 72.0 94% NA NA 30.06 1017.8
1:53 am EDT N 0.0 10.00 Fair -- 74.0 72.0 94% NA NA 30.05 1017.5
12:53 am EDT SW 4.6 10.00 Fair -- 74.0 71.1 91% NA NA 30.07 1018.1
11:53 pm EDT W 4.6 10.00 Fair -- 77.0 71.1 82% NA NA 30.08 1018.3
10:53 pm EDT SW 6.9 10.00 Fair -- 76.0 70.0 82% NA NA 30.08 1018.3
9:53 pm EDT SW 10.4 10.00 Fair -- 77.0 70.0 79% NA NA 30.06 1017.9
8:53 pm EDT SW 13.8 10.00 Fair -- 77.0 70.0 79% NA NA 30.04 1017.1
7:53 pm EDT SW 11.5 10.00 Fair -- 79.0 68.0 69% NA NA 30.02 1016.4
6:53 pm EDT SW 12.7 G 23.0 10.00 A Few Clouds -- 82.0 66.0 58% NA 84 30.00 1015.6

Regional Weather Observation


Pawtucket, North Central State Airport, RI (KSFZ)

Overcast
75.0 F

Providence, Theodore Francis Green State Airport, RI (KPVD)

Partly Cloudy and Windy
79.0 F

N. Kingston / Quonset, RI (KOQU)

A Few Clouds and Windy
79.0 F

Newport, Newport State Airport, RI (KUUU)

A Few Clouds and Breezy
78.0 F

New Bedford, New Bedford Regional Airport, MA (KEWB)

Mostly Cloudy and Breezy
77.0 F

Plymouth, Plymouth Municipal Airport, MA (KPYM)

Light Rain and Breezy
76.0 F